Location: Alafon
(8.4500°N, 4.2333°E)
Time: 01:19:33
(UTC+00:00)

Cosmos 1898 Rocket - Pass Details

Date: 05 July 2020
Orbit: 754 x 783 km, 74.0° (Epoch: 06 August)

Event Time Altitude Azimuth Distance (km) Brightness Sun altitude
Rises 19:22:50 0° 346° (NNW) 3,206 7.4 -18.1°
Reaches altitude 10° 19:25:12 10° 345° (NNW) 2,279 6.5 -18.6°
Maximum altitude 19:30:22 82° 258° (WSW) 764 3.5 -19.8°
Enters shadow 19:33:28 25° 172° (S) 1,502 4.7 -20.4°
